Wind_Speed
19 19 20 20 21 22 22 22 23 22 23 23 24 24 25 25 26 28 30 30 31 31 30 30 30 29 29 28 28 28 29 29 29 29 30 30 30 30 30 31 31 32 33 34
19 19 19 19 20 20 21 21 21 22 22 21 22 23 23 24 25 26 26 27 27 27 26 26 26 26 26 26 26 26 25 25 25 26 26 27 27 28 28 29 30 31 31 32
18 19 19 17 17 19 19 19 21 21 19 22 21 21 23 25 25 24 24 23 23 23 23 23 23 23 23 23 23 22 22 22 23 23 24 24 25 25 26 27 28 29 29 29
15 17 17 15 16 17 17 19 19 19 21 21 20 20 22 24 24 23 22 21 21 21 21 21 21 21 21 20 20 20 20 20 21 21 21 22 22 23 24 25 26 26 27 27
15 15 14 14 15 15 15 16 18 18 19 20 19 20 21 22 22 21 21 20 20 20 20 20 20 20 20 19 18 18 18 18 18 18 19 20 20 21 22 23 24 25 26 26
15 15 14 14 15 14 14 15 15 16 17 17 17 18 19 21 20 20 20 20 20 20 20 20 19 19 19 18 17 17 16 16 17 17 18 18 19 21 22 23 24 24 25 25
15 15 14 14 14 14 14 13 14 14 15 16 17 18 19 19 19 20 20 21 21 20 20 20 19 18 18 18 17 16 16 16 16 17 18 19 20 21 22 23 24 24 25 25
17 16 15 15 15 15 14 14 14 14 15 16 17 17 18 18 19 20 21 21 21 20 20 19 19 18 17 17 16 16 16 16 17 17 18 19 21 22 23 24 24 25 26 26
18 18 17 17 17 16 16 16 16 16 16 16 17 17 18 19 19 20 21 21 21 21 21 20 19 19 18 17 17 17 17 18 18 19 20 21 22 23 24 24 25 26 26 27
20 20 20 20 19 18 17 17 17 17 16 17 17 17 18 19 20 20 21 22 22 22 22 21 21 20 20 19 19 19 19 19 20 20 21 22 23 24 24 25 26 26 27 28
23 23 23 22 22 21 20 19 19 18 18 18 19 19 20 20 21 21 22 23 23 23 23 23 23 22 22 21 21 21 21 21 21 22 23 24 25 25 25 26 27 27 28 29
25 25 26 24 24 24 23 22 21 21 20 20 21 21 22 23 23 24 24 25 25 25 25 25 25 24 24 24 24 24 24 23 24 24 25 25 26 26 27 27 28 28 29 29
28 28 28 26 26 25 25 25 25 23 22 22 22 22 23 24 24 25 26 27 27 27 27 27 27 27 27 26 26 26 26 27 27 27 27 27 28 28 28 29 29 29 30 30
29 30 29 27 27 27 27 26 26 25 25 24 23 23 24 24 25 26 26 27 28 28 28 29 29 29 29 29 29 29 29 29 29 29 30 30 30 30 30 30 30 31 31 31
29 30 29 28 28 29 29 28 28 27 26 25 25 24 24 24 25 26 27 27 28 29 29 30 31 31 31 31 31 31 31 31 31 31 31 31 31 31 31 32 32 32 32 33
26 28 29 30 30 30 30 29 28 28 27 26 26 26 25 25 25 26 27 28 28 29 30 31 31 32 32 33 33 33 33 33 33 33 33 33 33 32 32 33 33 34 34 34
22 24 27 28 29 29 30 30 30 29 28 27 26 26 26 26 26 27 27 28 29 30 31 31 32 33 33 33 33 34 35 35 34 34 34 34 34 33 33 34 34 34 35 35
18 20 22 24 27 28 29 30 29 28 28 28 27 26 26 25 25 26 27 28 28 29 31 31 32 33 33 33 34 34 34 34 34 34 34 34 34 34 34 34 35 35 35 36
13 14 15 18 21 24 26 27 27 27 26 26 25 24 24 24 24 24 25 26 27 28 29 30 31 32 32 33 33 33 34 34 33 34 34 35 35 35 35 36 36 36 37 37
11 11 12 13 14 17 20 24 25 25 25 24 23 23 23 23 23 23 24 25 26 27 28 29 30 31 32 32 33 33 33 33 33 34 34 34 34 35 35 36 37 37 38 38
12 12 13 14 14 15 16 18 20 21 22 22 22 22 22 22 22 23 23 24 24 25 27 28 29 30 31 31 32 32 32 32 32 33 33 33 34 34 35 36 37 37 37 37
13 13 13 14 15 15 16 17 18 20 20 21 21 21 21 22 22 22 23 23 24 24 25 26 27 28 29 29 30 30 30 31 31 31 31 32 33 33 34 35 35 36 36 36
14 14 15 15 15 16 17 18 19 19 19 20 20 21 21 21 21 22 22 23 23 23 24 24 25 26 27 28 28 29 29 29 29 30 31 31 31 32 33 34 34 34 35 37
17 17 17 18 18 18 19 19 20 20 20 21 21 21 21 20 20 20 21 21 22 22 23 23 24 25 25 25 26 27 27 28 28 29 29 29 30 31 32 32 33 34 36 37
20 20 19 20 20 20 20 21 21 21 21 22 21 21 20 20 20 20 20 21 21 22 23 24 24 24 24 24 24 25 25 26 27 27 28 29 30 31 31 32 33 34 35 36
23 23 23 22 22 22 22 22 22 22 23 23 22 22 21 21 21 21 22 23 24 24 24 24 24 25 24 24 25 25 25 26 26 27 27 28 29 29 31 32 33 35 36 37
26 26 26 25 25 25 24 24 24 24 24 24 24 23 23 23 23 24 24 25 25 26 26 26 26 26 25 25 25 26 26 26 27 27 28 29 30 31 32 33 34 35 36 37
Wind_Direction
226 228 230 231 235 239 243 246 246 243 241 236 236 237 239 238 237 237 237 239 241 243 245 247 249 251 253 255 257 260 263 265 267 269 271 273 274 276 278 281 284 286 288 290
229 232 235 238 241 244 246 246 245 242 241 241 238 237 237 236 235 235 235 237 240 242 243 244 246 249 251 254 256 260 263 265 267 269 272 274 276 278 280 283 286 288 290 291
233 235 238 240 243 245 245 244 243 241 239 239 239 236 234 233 233 233 234 236 238 239 240 241 243 246 248 251 255 259 263 265 268 271 274 276 279 281 284 286 289 290 292 293
235 237 239 240 241 245 245 243 244 242 240 241 238 234 232 232 232 233 233 234 235 237 238 239 241 243 246 249 254 258 263 266 269 273 276 279 281 284 286 289 291 293 294 296
237 240 241 242 242 244 245 244 244 241 241 241 237 234 231 232 232 231 230 232 234 235 236 237 240 242 245 249 253 258 262 266 270 274 278 280 283 286 289 291 293 295 296 298
238 240 240 241 243 244 245 244 243 240 238 237 234 231 229 230 229 228 230 232 232 233 235 237 239 242 245 249 253 257 263 268 272 276 279 282 284 288 291 294 295 297 298 299
238 238 237 238 239 240 241 241 238 237 235 233 230 230 230 231 230 230 230 230 231 233 234 236 239 243 246 249 253 258 264 269 273 276 279 282 286 289 292 295 296 297 298 299
239 239 236 237 237 237 239 238 238 237 235 233 232 233 233 232 232 232 232 231 231 233 235 237 240 244 247 250 253 259 265 270 274 278 281 283 286 289 292 294 296 297 298 299
241 241 240 240 240 239 238 239 239 239 239 238 237 236 234 234 234 235 234 233 234 236 237 239 241 245 248 252 256 261 266 270 275 279 282 284 287 290 292 294 295 297 298 300
243 242 242 242 241 241 240 241 240 240 240 239 239 238 236 236 235 235 236 237 238 239 240 242 244 247 251 255 259 263 268 272 275 279 282 285 287 290 292 294 295 297 299 300
246 244 243 243 242 242 242 242 242 243 242 241 241 240 240 240 240 239 240 241 243 244 245 246 248 251 253 256 260 264 268 272 276 279 281 284 287 289 291 293 295 297 298 300
247 246 245 243 244 244 243 242 243 243 244 243 242 242 241 243 244 244 245 246 247 248 249 250 252 254 256 258 261 264 268 272 276 279 281 284 286 288 290 293 294 296 298 299
250 247 245 244 243 244 244 243 243 243 244 244 244 244 245 246 247 248 248 250 250 251 252 253 254 255 257 259 262 265 269 272 275 278 281 283 285 286 289 291 293 295 297 299
250 246 244 242 243 244 244 244 244 244 244 245 245 246 247 249 250 250 251 252 253 254 254 255 256 257 258 260 263 266 269 272 275 277 280 282 284 285 287 290 292 294 296 298
248 244 243 242 243 245 244 244 243 244 245 245 247 249 250 251 252 253 253 254 255 255 256 257 257 259 260 261 263 266 269 271 274 277 279 281 283 284 286 288 290 293 295 298
246 243 242 243 245 245 243 242 241 242 245 247 249 250 252 254 255 256 257 257 257 257 258 259 260 260 262 263 264 266 268 271 273 276 278 280 282 283 285 287 290 292 294 297
249 248 245 243 243 242 241 241 240 241 242 246 249 252 254 256 258 260 260 261 261 260 260 260 261 262 264 265 266 268 269 271 272 275 277 279 281 282 284 286 289 291 293 296
251 246 244 242 239 238 238 238 237 239 241 245 249 252 256 259 261 262 263 263 263 262 262 262 262 263 264 266 267 268 270 271 273 274 277 279 280 281 283 285 288 290 293 296
253 247 242 238 236 236 236 235 234 236 240 244 248 252 256 260 263 264 265 265 264 264 264 264 265 265 266 266 268 270 271 272 273 275 276 278 279 280 282 284 287 289 292 295
250 242 237 235 237 236 235 232 231 234 239 244 248 252 257 261 265 266 268 268 267 266 266 267 267 267 268 268 269 270 271 272 273 275 277 278 279 280 282 284 286 288 291 294
246 244 242 240 239 236 233 231 232 236 240 244 248 253 259 263 267 269 270 270 271 270 270 269 269 269 269 270 270 271 272 273 274 275 276 278 279 281 282 284 287 289 292 294
248 245 245 245 242 238 236 234 237 241 243 246 250 255 260 264 268 270 271 273 274 274 274 273 272 272 271 271 271 272 272 273 275 276 277 279 280 282 284 286 288 290 292 295
247 244 244 244 243 241 239 239 242 245 247 250 253 257 261 265 269 271 273 274 275 276 276 276 276 275 274 273 272 272 273 273 275 276 278 280 282 284 286 288 290 292 294 296
247 246 245 244 245 246 245 245 247 248 250 253 256 259 262 266 270 273 276 278 278 278 278 278 278 278 277 275 274 273 273 274 276 278 279 280 283 285 288 290 291 293 296 298
246 246 247 248 248 249 249 249 250 251 254 256 257 259 262 265 269 273 277 280 281 282 282 281 280 279 278 277 276 275 275 275 276 278 280 283 285 287 289 291 293 296 298 299
247 248 248 249 249 251 252 252 253 254 256 256 257 258 260 263 269 275 279 282 283 283 283 282 280 279 278 277 277 277 276 276 278 280 282 285 287 290 291 293 295 297 299 301
249 249 250 251 251 252 253 255 256 257 257 257 257 258 260 264 270 276 281 284 285 285 284 282 280 279 279 278 278 277 277 278 279 281 283 285 288 291 294 296 298 299 301 303
Height
5637 5639 5641 5643 5644 5645 5647 5649 5651 5653 5654 5658 5660 5663 5665 5668 5670 5673 5676 5679 5682 5684 5687 5689 5691 5693 5695 5696 5697 5698 5699 5699 5698 5698 5697 5696 5695 5694 5692 5691 5689 5686 5684 5681
5633 5635 5636 5638 5640 5641 5642 5644 5645 5647 5649 5652 5654 5656 5659 5662 5664 5666 5669 5672 5674 5677 5679 5682 5684 5686 5687 5689 5690 5690 5691 5691 5690 5690 5689 5688 5687 5685 5684 5682 5680 5678 5675 5672
5630 5631 5632 5634 5636 5636 5637 5639 5640 5641 5645 5646 5648 5650 5653 5655 5657 5660 5663 5665 5668 5670 5673 5675 5677 5679 5680 5682 5682 5683 5683 5683 5683 5682 5681 5680 5679 5677 5676 5674 5672 5669 5666 5663
5625 5627 5628 5633 5631 5632 5633 5634 5635 5637 5639 5640 5643 5645 5647 5649 5652 5654 5657 5660 5662 5664 5667 5669 5671 5672 5674 5675 5675 5676 5676 5676 5676 5675 5674 5673 5672 5670 5668 5666 5664 5662 5659 5655
5622 5623 5625 5627 5627 5627 5628 5630 5631 5632 5634 5635 5637 5640 5642 5644 5646 5649 5652 5654 5657 5659 5661 5663 5665 5666 5667 5668 5669 5669 5669 5669 5669 5668 5667 5666 5665 5663 5661 5659 5657 5654 5651 5648
5618 5619 5621 5624 5623 5623 5625 5626 5627 5628 5629 5631 5633 5636 5638 5639 5641 5644 5646 5649 5651 5653 5655 5657 5659 5660 5661 5662 5663 5663 5663 5663 5662 5662 5661 5660 5658 5657 5655 5653 5650 5647 5644 5641
5614 5615 5617 5619 5619 5620 5622 5624 5623 5624 5625 5627 5629 5631 5633 5634 5637 5639 5641 5644 5646 5648 5650 5652 5653 5655 5656 5656 5657 5657 5657 5657 5656 5656 5655 5653 5652 5650 5648 5646 5643 5641 5638 5635
5609 5611 5615 5614 5615 5616 5618 5618 5619 5620 5621 5623 5624 5626 5628 5630 5632 5634 5637 5639 5641 5643 5645 5646 5648 5649 5650 5650 5651 5651 5651 5651 5650 5649 5649 5647 5646 5644 5642 5639 5637 5634 5631 5628
5606 5609 5609 5609 5610 5611 5613 5614 5615 5616 5617 5619 5620 5622 5624 5626 5628 5630 5632 5634 5636 5637 5639 5641 5642 5643 5644 5645 5645 5645 5645 5645 5644 5643 5642 5641 5639 5637 5635 5633 5630 5627 5624 5621
5600 5601 5602 5603 5605 5606 5608 5609 5610 5612 5613 5614 5616 5617 5619 5621 5623 5625 5626 5628 5630 5632 5633 5635 5636 5637 5638 5638 5639 5639 5639 5638 5638 5637 5635 5634 5632 5630 5628 5626 5623 5620 5617 5614
5592 5594 5595 5597 5599 5601 5602 5603 5605 5607 5608 5609 5611 5613 5614 5616 5618 5619 5621 5623 5624 5626 5627 5628 5630 5631 5631 5632 5632 5632 5632 5632 5631 5630 5628 5627 5625 5623 5621 5618 5616 5613 5610 5606
5585 5586 5588 5591 5592 5594 5596 5597 5599 5601 5602 5604 5605 5607 5608 5610 5612 5613 5615 5616 5618 5619 5620 5622 5623 5624 5624 5625 5625 5625 5625 5624 5623 5622 5621 5619 5617 5615 5613 5611 5608 5605 5602 5599
5575 5577 5579 5582 5584 5586 5588 5590 5592 5594 5596 5598 5599 5601 5602 5604 5605 5607 5608 5609 5611 5612 5613 5614 5615 5616 5617 5617 5617 5617 5617 5616 5615 5614 5613 5611 5609 5607 5605 5603 5600 5597 5594 5591
5563 5566 5570 5573 5576 5578 5580 5583 5585 5587 5589 5591 5593 5594 5595 5597 5598 5599 5601 5602 5603 5604 5605 5606 5607 5608 5608 5609 5609 5609 5608 5608 5607 5606 5604 5602 5601 5599 5597 5594 5592 5589 5586 5582
5552 5556 5560 5564 5567 5569 5572 5574 5577 5579 5582 5584 5585 5587 5588 5590 5591 5592 5593 5594 5595 5596 5597 5598 5598 5599 5599 5600 5600 5600 5599 5599 5598 5597 5595 5594 5592 5590 5588 5585 5583 5580 5577 5574
5542 5546 5550 5554 5557 5560 5562 5565 5569 5571 5574 5576 5578 5580 5581 5582 5583 5584 5585 5586 5587 5588 5588 5589 5589 5590 5590 5590 5590 5590 5590 5589 5588 5587 5586 5584 5583 5581 5579 5576 5574 5571 5568 5564
5534 5536 5539 5543 5546 5549 5552 5556 5559 5563 5566 5568 5570 5572 5573 5575 5576 5576 5577 5578 5578 5579 5579 5580 5580 5580 5581 5581 5581 5580 5580 5579 5578 5577 5576 5575 5573 5571 5569 5567 5564 5562 5559 5555
5527 5528 5530 5532 5535 5539 5542 5546 5550 5554 5557 5560 5562 5564 5566 5567 5568 5568 5569 5569 5569 5570 5570 5570 5570 5571 5571 5571 5571 5570 5570 5569 5568 5568 5566 5565 5563 5562 5560 5557 5555 5552 5549 5546
5524 5524 5525 5525 5527 5530 5534 5538 5542 5546 5550 5553 5555 5557 5558 5559 5559 5560 5560 5560 5560 5560 5561 5561 5561 5561 5561 5561 5561 5560 5560 5559 5559 5558 5556 5555 5553 5552 5550 5548 5545 5542 5539 5536
5523 5522 5522 5523 5524 5526 5528 5532 5536 5540 5543 5546 5548 5549 5551 5551 5552 5552 5552 5552 5552 5551 5551 5551 5551 5551 5551 5551 5551 5550 5550 5549 5549 5548 5546 5545 5543 5542 5540 5538 5535 5532 5529 5526
5520 5521 5521 5521 5522 5523 5525 5528 5531 5534 5537 5539 5541 5542 5543 5544 5544 5544 5544 5544 5543 5543 5543 5542 5542 5542 5541 5541 5541 5541 5540 5539 5538 5538 5536 5535 5533 5532 5530 5528 5525 5522 5519 5516
5517 5518 5518 5519 5520 5521 5522 5524 5527 5529 5531 5533 5534 5535 5536 5537 5537 5537 5536 5536 5535 5535 5534 5533 5533 5532 5532 5532 5531 5531 5530 5529 5529 5528 5527 5525 5524 5522 5520 5518 5515 5512 5509 5506
5513 5514 5515 5515 5516 5518 5519 5520 5522 5524 5525 5526 5528 5529 5529 5530 5530 5529 5529 5528 5527 5527 5526 5525 5524 5524 5523 5522 5522 5521 5521 5520 5519 5518 5517 5516 5514 5513 5510 5508 5506 5503 5500 5496
5509 5509 5510 5511 5512 5513 5514 5515 5517 5518 5519 5520 5521 5522 5522 5522 5522 5522 5521 5521 5520 5519 5518 5517 5516 5515 5515 5514 5513 5512 5512 5511 5510 5509 5508 5507 5505 5503 5501 5499 5496 5493 5490 5486
5503 5504 5504 5505 5506 5507 5508 5509 5510 5511 5512 5513 5514 5514 5515 5515 5515 5515 5514 5513 5512 5511 5510 5509 5508 5507 5506 5506 5505 5504 5503 5502 5502 5501 5499 5498 5496 5494 5492 5489 5487 5484 5480 5477
5496 5497 5498 5499 5500 5501 5502 5503 5503 5504 5505 5506 5506 5507 5507 5508 5508 5507 5507 5506 5505 5504 5503 5501 5500 5500 5499 5498 5497 5496 5495 5494 5493 5492 5491 5489 5487 5485 5483 5480 5477 5474 5471 5467
5488 5489 5490 5491 5492 5493 5494 5495 5496 5497 5497 5498 5499 5499 5500 5500 5500 5500 5499 5498 5497 5496 5494 5493 5492 5491 5490 5490 5489 5488 5487 5486 5485 5483 5482 5480 5479 5476 5474 5471 5468 5465 5461 5457